SAVONLINNA_(AUT) current weather conditions

sailwx.info

Wind from 240 at 1 knots

Air temperature -3.0° C
Visibility: greater than 5.4 NM
Dewpoint -10.0° C

Last reported at 2017-Mar-24 20:20 UTC.
Time now 2017-Mar-24 22:03 UTC

Location: N 61°57' E 028°57'.
View on Google Maps.

See reports from other nearby stations

  
Tides and Currents Weather Stations Pressure Air Temp Water Temp Dewpoint Dewpoint Depression Visibility Wind Speed Wind Dir Waves Ship Positions
date/time (UTC)wind fromknots sea level pressurealtimeterstation pressurevisibilityair tempwater tempwave heightnotes
2017-Mar-24 20:20 240 1 5.4-3.0
2017-Mar-24 19:50 260 5 5.4-2.0
2017-Mar-24 19:20 270 6 5.4-2.0
2017-Mar-24 18:50 260 4 5.4-2.0
2017-Mar-24 18:20 260 5 5.4-2.0
2017-Mar-24 17:50 270 5 5.4-1.0
2017-Mar-24 17:20 260 2 5.4-1.0
2017-Mar-24 16:50 280 4 5.4-1.0
2017-Mar-24 16:20 280 5 5.4-0.0
2017-Mar-24 15:50 270 6 5.4 1.0
2017-Mar-24 15:20 270 8 5.4 1.0
2017-Mar-24 14:50 270 8 5.4 2.0
2017-Mar-24 14:20 280 12 5.4 2.0
2017-Mar-24 13:50 280 9 5.4 2.0
2017-Mar-24 13:20 280 13 5.4 2.0
2017-Mar-24 12:50 260 12 5.4 1.0
2017-Mar-24 12:20 270 12 5.4 1.0
2017-Mar-24 11:50 260 13 5.4 1.0
2017-Mar-24 11:20 270 13 5.4 1.0
2017-Mar-24 10:50 270 13 5.4-0.0
2017-Mar-24 10:20 270 13 5.4-0.0
2017-Mar-24 09:50 270 11 5.4-1.0
2017-Mar-24 09:20 260 11 5.4-1.0
2017-Mar-24 08:50 270 9 5.4-1.0
2017-Mar-24 08:20 260 12 5.4-2.0
2017-Mar-24 07:50 270 13 5.4-2.0
2017-Mar-24 07:20 270 12 5.4-2.0
2017-Mar-24 06:50 270 13 5.4-2.0
2017-Mar-24 06:20 270 12 5.4-2.0
2017-Mar-24 05:50 270 11 5.4-2.0
2017-Mar-24 05:20 260 9 5.4-2.0
2017-Mar-24 04:50 260 7 5.4-2.0
2017-Mar-24 04:20 260 8 5.4-2.0 Light snow.
2017-Mar-24 03:50 260 8 5.4-2.0
2017-Mar-24 03:20 260 11 5.4-2.0
2017-Mar-24 02:50 270 9 5.4-2.0
2017-Mar-24 02:20 260 8 5.4-2.0
2017-Mar-24 01:50 260 6 5.4-2.0
2017-Mar-24 01:20 250 6 5.4-2.0
2017-Mar-24 00:50 250 6 5.4-2.0
2017-Mar-24 00:20 240 5 5.4-2.0
2017-Mar-23 23:50 240 5 5.4-2.0
2017-Mar-23 23:20 240 5 5.4-1.0
2017-Mar-23 22:50 240 5 5.4-1.0
2017-Mar-23 22:20 240 6 5.4-1.0
2017-Mar-23 21:50 240 4 5.4-1.0
2017-Mar-23 21:20 240 5 5.4-1.0
2017-Mar-23 20:50 240 4 5.4-0.0
2017-Mar-23 20:20 250 5 5.4-0.0
2017-Mar-23 19:50 250 5 5.4-0.0
2017-Mar-23 19:20 260 6 5.4 1.0
2017-Mar-23 18:50 250 6 5.4 2.0
2017-Mar-23 18:20 230 6 5.4 2.0
2017-Mar-23 17:50 230 6 5.4 2.0
2017-Mar-23 17:20 230 6 5.4 3.0
2017-Mar-23 16:50 220 5 5.4 3.0
2017-Mar-23 16:20 230 6 5.4 3.0 Showers in the vicinity.
2017-Mar-23 15:50 230 6 5.4 4.0
2017-Mar-23 15:20 240 9 gusting 20 5.4 4.0
2017-Mar-23 14:50 250 7 5.4 4.0
2017-Mar-23 14:20 250 7 5.4 4.0
2017-Mar-23 13:50 260 9 5.4 4.0
2017-Mar-23 13:20 250 9 5.4 4.0
2017-Mar-23 12:50 260 13 5.4 4.0
2017-Mar-23 12:20 260 12 5.4 4.0
2017-Mar-23 11:50 250 12 5.4 4.0
2017-Mar-23 11:20 240 11 5.4 4.0
2017-Mar-23 10:50 270 12 5.4 4.0
2017-Mar-23 10:20 250 11 5.4 4.0
2017-Mar-23 09:50 260 8 5.4 3.0
2017-Mar-23 09:20 270 9 5.4 3.0
2017-Mar-23 08:50 260 7 5.4 3.0
2017-Mar-23 08:20 250 8 5.4 2.0
2017-Mar-23 07:50 250 8 5.4 2.0
2017-Mar-23 07:20 260 8 5.4 2.0
2017-Mar-23 06:50 240 8 5.4 1.0
2017-Mar-23 06:20 240 7 5.4 1.0
2017-Mar-23 05:50 230 8 5.4 1.0
2017-Mar-23 05:20 230 6 5.4-0.0
2017-Mar-23 04:50 220 6 5.4-0.0
2017-Mar-23 04:20 230 6 5.4-0.0
2017-Mar-23 03:50 230 6 5.4-0.0
2017-Mar-23 03:20 230 6 5.4-0.0
2017-Mar-23 02:50 220 6 5.4 1.0
2017-Mar-23 02:20 230 6 5.4 1.0
2017-Mar-23 01:50 230 6 5.4 1.0
2017-Mar-23 01:20 220 5 5.4 1.0
2017-Mar-23 00:50 220 6 5.4 1.0
2017-Mar-23 00:20 220 6 5.4 1.0
2017-Mar-22 23:50 220 6 5.4 1.0
2017-Mar-22 23:20 220 6 5.4 1.0
2017-Mar-22 22:50 210 6 5.4 1.0
2017-Mar-22 22:20 210 6 5.4 1.0